Shelbyville, IN

3:17 AM EDT on September 28, 2016 (GMT -0400)
Shelbyville Municipal

Weather History for KGEZ - May, 2013

Change the Weather History Date:

Monday, May 13, 2013

  Actual Average Record
Temperature  
Mean Temperature 51 °F 62 °F  
Max Temperature 64 °F 72 °F 87 °F (2014)
Min Temperature 38 °F 51 °F 38 °F (2013)
Degree Days  
Heating Degree Days 14 5  
Month to date heating degree days 55 80  
Since 1 July heating degree days 5048 5340  
Cooling Degree Days 0 2  
Month to date cooling degree days 19 15  
Year to date cooling degree days 35 28  
Moisture  
Dew Point 33 °F    
Average Humidity 55    
Maximum Humidity 85    
Minimum Humidity 25    
Precipitation  
Precipitation 0.00 in 0.18 in 1.53 in (2002)
Month to date precipitation 0.95 2.41  
Year to date precipitation 10.68 14.91  
Sea Level Pressure  
Sea Level Pressure 30.13 in    
Wind  
Wind Speed 6 mph (West)    
Max Wind Speed 18 mph    
Max Gust Speed 25 mph    
Visibility 10 miles    
Events      
T = Trace of Precipitation, MM = Missing Value Source: NWS Daily Summary

Daily Weather History Graph

Daily Weather History Graph

Search for Another Location

Airport or City:

Trip Planner

Search our weather history database for the weather conditions in past years. The results will help you decide how hot, cold, wet, or windy it might be!

Date:

Astronomy

May. 13, 2013 Rise Set
Actual Time 6:30 AM EDT 8:49 PM EDT
Civil Twilight 6:00 AM EDT 9:19 PM EDT
Nautical Twilight 5:23 AM EDT 9:56 PM EDT
Astronomical Twilight 4:42 AM EDT 10:37 PM EDT
Moon 9:16 AM EDT (5/13) 11:57 PM EDT (5/13)
Length of Visible Light 15h 18m
Length of Day
14h 18m
Waxing Crescent, 12% of the Moon is Illuminated
May 13
Waxing Crescent
May 18
First Quarter
May 25
Full
May 31
Last Quarter
Jun 8
New

Hourly Weather History & Observations

Time (EDT) Temp. Windchill Dew Point Humidity Pressure Visibility Wind Dir Wind Speed Gust Speed Precip Events Conditions
12:53 AM 46.0 °F 43.1 °F 34.0 °F 63% 30.11 in 10.0 mi WSW 5.8 mph - N/A   Partly Cloudy
1:53 AM 45.0 °F - 33.1 °F 63% 30.11 in 10.0 mi Calm Calm - N/A   Scattered Clouds
2:53 AM 43.0 °F 40.3 °F 34.0 °F 71% 30.10 in 10.0 mi West 4.6 mph - N/A   Mostly Cloudy
3:53 AM 42.1 °F - 34.0 °F 73% 30.11 in 10.0 mi Calm Calm - N/A   Mostly Cloudy
4:53 AM 39.9 °F - 34.0 °F 79% 30.11 in 10.0 mi Calm Calm - N/A   Clear
5:53 AM 37.9 °F - 33.1 °F 83% 30.11 in 10.0 mi Calm Calm - N/A   Clear
6:53 AM 39.0 °F - 34.0 °F 82% 30.12 in 10.0 mi Calm Calm - N/A   Clear
7:53 AM 43.0 °F 40.3 °F 36.0 °F 76% 30.13 in 10.0 mi SW 4.6 mph - N/A   Clear
8:53 AM 48.0 °F - 36.0 °F 63% 30.16 in 10.0 mi West 5.8 mph - N/A   Clear
9:53 AM 54.0 °F - 34.0 °F 47% 30.17 in 10.0 mi West 5.8 mph - N/A   Clear
10:53 AM 57.0 °F - 28.9 °F 34% 30.18 in 10.0 mi WNW 15.0 mph 24.2 mph N/A   Partly Cloudy
11:53 AM 57.9 °F - 28.9 °F 33% 30.19 in 10.0 mi NW 15.0 mph - N/A   Clear
12:53 PM 59.0 °F - 30.0 °F 33% 30.18 in 10.0 mi West 9.2 mph 25.3 mph N/A   Partly Cloudy
1:53 PM 60.1 °F - 28.9 °F 31% 30.17 in 10.0 mi NW 12.7 mph 21.9 mph N/A   Partly Cloudy
2:53 PM 61.0 °F - 30.0 °F 31% 30.16 in 10.0 mi NW 9.2 mph - N/A   Partly Cloudy
4:53 PM 64.0 °F - 30.0 °F 28% 30.13 in 10.0 mi NW 12.7 mph - N/A   Clear
5:53 PM 63.0 °F - 27.0 °F 26% 30.12 in 10.0 mi West 8.1 mph - N/A   Clear
6:53 PM 64.0 °F - 28.9 °F 27% 30.11 in 10.0 mi WNW 9.2 mph - N/A   Clear
8:53 PM 59.0 °F - 32.0 °F 36% 30.11 in 10.0 mi West 3.5 mph - N/A   Clear
9:53 PM 54.0 °F - 39.0 °F 57% 30.12 in 10.0 mi Calm Calm - N/A   Clear
10:53 PM 51.1 °F - 39.9 °F 66% 30.12 in 10.0 mi South 4.6 mph - N/A   Clear
11:53 PM 52.0 °F - 36.0 °F 54% 30.12 in 10.0 mi South 6.9 mph - N/A   Partly Cloudy